Spearman, TX

10:12 PM CDT on August 31, 2016 (GMT -0500)
Pampa / Mesa Vista

Weather History for KBPC - February, 2012

Change the Weather History Date:

Monday, February 27, 2012

  Actual Average (KBGD) Record (KBGD)
Temperature  
Mean Temperature 46 °F 44 °F  
Max Temperature 50 °F 57 °F 81 °F (2006)
Min Temperature 42 °F 32 °F 6 °F (1962)
Degree Days  
Heating Degree Days 19 21  
Month to date heating degree days 623  
Since 1 July heating degree days 2975  
Cooling Degree Days 0 0  
Month to date cooling degree days 0  
Year to date cooling degree days 0  
Moisture  
Dew Point 19 °F    
Average Humidity 38    
Maximum Humidity 87    
Minimum Humidity 21    
Precipitation  
Precipitation 0.00 in 0.02 in 0.76 in (1966)
Month to date precipitation 0.60  
Year to date precipitation 1.19  
Snow  
Snow 0.00 in - 3.00 in (2015)
Month to date snowfall  
Since 1 July snowfall  
Snow Depth -    
Sea Level Pressure  
Sea Level Pressure 30.24 in    
Wind  
Wind Speed 12 mph (East)    
Max Wind Speed 16 mph    
Max Gust Speed 22 mph    
Visibility 10 miles    
Events      
T = Trace of Precipitation, MM = Missing Value Source: NWS Daily Summary

Daily Weather History Graph

Daily Weather History Graph

Search for Another Location

Airport or City:

Trip Planner

Search our weather history database for the weather conditions in past years. The results will help you decide how hot, cold, wet, or windy it might be!

Date:

Astronomy

Feb. 27, 2012 Rise Set
Actual Time 7:17 AM CST 6:36 PM CST
Civil Twilight 6:51 AM CST 7:02 PM CST
Nautical Twilight 6:21 AM CST 7:32 PM CST
Astronomical Twilight 5:52 AM CST 8:02 PM CST
Moon 10:00 AM CST (2/27) No Moon Set
Length of Visible Light 12h 11m
Length of Day
11h 19m
Waxing Crescent, 29% of the Moon is Illuminated
Feb 27
Waxing Crescent
Feb 29
First Quarter
Mar 8
Full
Mar 14
Last Quarter
Mar 22
New

Hourly Weather History & Observations

Time (CST) Temp. Windchill Dew Point Humidity Pressure Visibility Wind Dir Wind Speed Gust Speed Precip Events Conditions
12:15 AM 42.8 °F 36.6 °F 10.4 °F 27% 30.21 in 10.0 mi ENE 11.5 mph - N/A   Overcast
12:35 AM 44.6 °F 38.1 °F 8.6 °F 23% 30.20 in 10.0 mi ENE 13.8 mph 19.6 mph N/A   Overcast
12:55 AM 44.6 °F 38.1 °F 8.6 °F 23% 30.21 in 10.0 mi ENE 13.8 mph 20.7 mph N/A   Overcast
1:15 AM 44.6 °F 38.4 °F 8.6 °F 23% 30.21 in 10.0 mi NE 12.7 mph - N/A   Overcast
1:35 AM 44.6 °F 38.4 °F 8.6 °F 23% 30.22 in 10.0 mi NE 12.7 mph - N/A   Overcast
1:55 AM 44.6 °F 38.8 °F 8.6 °F 23% 30.23 in 10.0 mi ENE 11.5 mph - N/A   Overcast
2:15 AM 44.6 °F 38.8 °F 8.6 °F 23% 30.24 in 10.0 mi ENE 11.5 mph - N/A   Overcast
2:35 AM 44.6 °F 38.4 °F 6.8 °F 21% 30.24 in 10.0 mi ENE 12.7 mph 17.3 mph N/A   Overcast
2:55 AM 44.6 °F 39.2 °F 8.6 °F 23% 30.26 in 10.0 mi ENE 10.4 mph - N/A   Overcast
3:15 AM 44.6 °F 39.2 °F 8.6 °F 23% 30.25 in 10.0 mi ENE 10.4 mph - N/A   Overcast
3:35 AM 42.8 °F 37.5 °F 8.6 °F 25% 30.24 in 10.0 mi ENE 9.2 mph - N/A   Overcast
3:55 AM 42.8 °F 37.0 °F 10.4 °F 27% 30.24 in 10.0 mi ENE 10.4 mph - N/A   Overcast
4:15 AM 42.8 °F 37.5 °F 10.4 °F 27% 30.24 in 10.0 mi ENE 9.2 mph - N/A   Overcast
4:35 AM 42.8 °F 36.6 °F 10.4 °F 27% 30.24 in 10.0 mi ENE 11.5 mph 18.4 mph N/A   Overcast
4:55 AM 42.8 °F 35.8 °F 8.6 °F 25% 30.24 in 10.0 mi ENE 13.8 mph - N/A   Overcast
5:15 AM 42.8 °F 35.8 °F 10.4 °F 27% 30.24 in 10.0 mi NE 13.8 mph 18.4 mph N/A   Overcast
5:35 AM 42.8 °F 36.2 °F 8.6 °F 25% 30.25 in 10.0 mi ENE 12.7 mph 17.3 mph N/A   Overcast
5:55 AM 42.8 °F 37.5 °F 10.4 °F 27% 30.26 in 10.0 mi ENE 9.2 mph 18.4 mph N/A   Overcast
6:15 AM 42.8 °F 38.0 °F 10.4 °F 27% 30.26 in 10.0 mi ENE 8.1 mph - N/A   Overcast
6:35 AM 42.8 °F 36.6 °F 10.4 °F 27% 30.26 in 10.0 mi ENE 11.5 mph 18.4 mph N/A   Overcast
6:55 AM 42.8 °F 35.8 °F 10.4 °F 27% 30.27 in 10.0 mi East 13.8 mph 18.4 mph N/A   Overcast
7:15 AM 42.8 °F 35.1 °F 10.4 °F 27% 30.27 in 10.0 mi East 16.1 mph - N/A   Overcast
7:35 AM 42.8 °F 37.5 °F 12.2 °F 29% 30.28 in 10.0 mi ENE 9.2 mph 17.3 mph N/A   Overcast
7:55 AM 42.8 °F 37.0 °F 12.2 °F 29% 30.29 in 10.0 mi ENE 10.4 mph - N/A   Overcast
8:15 AM 42.8 °F 37.5 °F 12.2 °F 29% 30.29 in 10.0 mi ENE 9.2 mph - N/A   Overcast
8:35 AM 42.8 °F 38.0 °F 12.2 °F 29% 30.30 in 10.0 mi ENE 8.1 mph - N/A   Overcast
8:55 AM 42.8 °F 38.6 °F 12.2 °F 29% 30.31 in 10.0 mi ENE 6.9 mph - N/A   Overcast
9:15 AM 42.8 °F 37.5 °F 12.2 °F 29% 30.32 in 10.0 mi ENE 9.2 mph - N/A   Overcast
9:35 AM 42.8 °F 38.6 °F 12.2 °F 29% 30.33 in 10.0 mi ENE 6.9 mph - N/A   Overcast
9:55 AM 44.6 °F 40.2 °F 14.0 °F 29% 30.33 in 10.0 mi ENE 8.1 mph - N/A   Overcast
10:15 AM 44.6 °F 39.2 °F 14.0 °F 29% 30.33 in 10.0 mi East 10.4 mph - N/A   Overcast
10:35 AM 42.8 °F 36.2 °F 15.8 °F 34% 30.33 in 10.0 mi ENE 12.7 mph 18.4 mph N/A   Overcast
10:55 AM 44.6 °F 38.8 °F 15.8 °F 31% 30.34 in 10.0 mi ENE 11.5 mph - N/A   Overcast
11:15 AM 42.8 °F 38.0 °F 17.6 °F 36% 30.33 in 10.0 mi ENE 8.1 mph - N/A   Overcast
11:35 AM 44.6 °F 38.8 °F 17.6 °F 34% 30.33 in 10.0 mi ENE 11.5 mph - N/A   Overcast
11:55 AM 44.6 °F 38.4 °F 17.6 °F 34% 30.32 in 10.0 mi East 12.7 mph - N/A   Overcast
12:15 PM 44.6 °F 38.8 °F 19.4 °F 37% 30.31 in 10.0 mi ENE 11.5 mph - N/A   Overcast
12:35 PM 44.6 °F 38.4 °F 19.4 °F 37% 30.30 in 10.0 mi East 12.7 mph - N/A   Overcast
12:55 PM 44.6 °F 38.8 °F 19.4 °F 37% 30.29 in 10.0 mi East 11.5 mph - N/A   Overcast
1:15 PM 44.6 °F 38.8 °F 21.2 °F 39% 30.27 in 10.0 mi East 11.5 mph 17.3 mph N/A   Overcast
1:35 PM 46.4 °F 40.7 °F 21.2 °F 37% 30.26 in 10.0 mi East 12.7 mph - N/A   Overcast
1:55 PM 46.4 °F 41.5 °F 21.2 °F 37% 30.25 in 10.0 mi East 10.4 mph - N/A   Overcast
2:15 PM 46.4 °F 40.7 °F 23.0 °F 40% 30.24 in 10.0 mi ESE 12.7 mph - N/A   Overcast
2:35 PM 46.4 °F 40.7 °F 24.8 °F 43% 30.22 in 10.0 mi ESE 12.7 mph - N/A   Overcast
2:55 PM 48.2 °F - 26.6 °F 43% 30.22 in 10.0 mi SE 11.5 mph 16.1 mph N/A   Overcast
3:15 PM 50.0 °F - 28.4 °F 43% 30.20 in 10.0 mi ESE 12.7 mph - N/A   Overcast
3:35 PM 50.0 °F - 30.2 °F 47% 30.20 in 10.0 mi SE 16.1 mph 21.9 mph N/A   Overcast
3:55 PM 50.0 °F - 32.0 °F 50% 30.19 in 10.0 mi ESE 15.0 mph 19.6 mph N/A   Overcast
4:15 PM 50.0 °F - 32.0 °F 50% 30.19 in 10.0 mi SE 15.0 mph - N/A   Overcast
4:35 PM 50.0 °F - 32.0 °F 50% 30.18 in 10.0 mi ESE 13.8 mph - N/A   Overcast
4:55 PM 50.0 °F - 32.0 °F 50% 30.18 in 10.0 mi SE 15.0 mph 18.4 mph N/A   Overcast
5:15 PM 50.0 °F - 33.8 °F 54% 30.17 in 10.0 mi SE 16.1 mph - N/A   Overcast
5:35 PM 48.2 °F - 33.8 °F 58% 30.17 in 10.0 mi SE 13.8 mph 18.4 mph N/A   Overcast
5:55 PM 48.2 °F - 33.8 °F 58% 30.16 in 10.0 mi SE 15.0 mph 18.4 mph N/A   Overcast
6:15 PM 48.2 °F - 33.8 °F 58% 30.16 in 10.0 mi SE 12.7 mph 18.4 mph N/A   Overcast
6:35 PM 48.2 °F - 35.6 °F 62% 30.15 in 10.0 mi SE 10.4 mph - N/A   Overcast
6:55 PM 48.2 °F - 35.6 °F 62% 30.15 in 10.0 mi SE 11.5 mph - N/A   Overcast
7:15 PM 50.0 °F - 37.4 °F 62% 30.15 in 10.0 mi SE 12.7 mph 18.4 mph N/A   Overcast
7:35 PM 48.2 °F - 37.4 °F 66% 30.14 in 10.0 mi SE 11.5 mph - N/A   Overcast
7:55 PM 48.2 °F - 41.0 °F 76% 30.14 in 10.0 mi SE 10.4 mph 16.1 mph N/A   Overcast
8:15 PM 48.2 °F - 42.8 °F 82% 30.14 in 7.0 mi SE 12.7 mph 18.4 mph N/A   Overcast
8:35 PM 46.4 °F 41.5 °F 42.8 °F 87% 30.14 in 10.0 mi SE 10.4 mph - N/A   Overcast
8:55 PM 46.4 °F 41.9 °F 44.6 °F 93% 30.13 in 5.0 mi ESE 9.2 mph - N/A Rain Rain
9:15 PM 46.4 °F 42.9 °F 44.6 °F 93% 30.12 in 4.0 mi ESE 6.9 mph - N/A   Overcast
9:35 PM 46.4 °F 41.9 °F 46.4 °F 100% 30.12 in 7.0 mi SE 9.2 mph - N/A   Overcast
9:55 PM 48.2 °F - 46.4 °F 93% 30.12 in 4.0 mi SE 11.5 mph - N/A Rain Rain
10:15 PM 48.2 °F - 46.4 °F 93% 30.12 in 10.0 mi SE 11.5 mph - N/A   Overcast
10:35 PM 48.2 °F - 46.4 °F 93% 30.12 in 5.0 mi SE 12.7 mph - N/A Rain Light Rain
10:55 PM 48.2 °F - 46.4 °F 93% 30.11 in 10.0 mi SE 13.8 mph - N/A   Overcast
11:15 PM 48.2 °F - 46.4 °F 93% 30.10 in 7.0 mi SE 15.0 mph 18.4 mph N/A   Light Drizzle
11:35 PM 48.2 °F - 46.4 °F 93% 30.09 in 7.0 mi SE 15.0 mph 20.7 mph N/A   Overcast
11:55 PM 48.2 °F - 48.2 °F 100% 30.07 in 7.0 mi SE 17.3 mph 25.3 mph N/A   Overcast